Stündliche Wetter Bolshie Kibyachi

Heute, 30 September, Mittwoch

Zeit Temperatur Niederschläge Wind Luftdruck Luftfeuchtigkeit
00:00 +10°C° 0 mm 2 m/S 764 mmHg 72%
01:00 +11°C° 0 mm 1 m/S 764 mmHg 74%
02:00 +11°C° 0 mm 1 m/S 764 mmHg 76%
03:00 +10°C° 0 mm 1 m/S 764 mmHg 77%
04:00 +9°C° 0 mm 2 m/S 764 mmHg 79%
05:00 +9°C° 0 mm 2 m/S 764 mmHg 82%
06:00 +9°C° 0 mm 2 m/S 764 mmHg 84%
07:00 +10°C° 0 mm 2 m/S 764 mmHg 81%
08:00 +13°C° 0 mm 2 m/S 764 mmHg 78%
09:00 +14°C° 0 mm 2 m/S 764 mmHg 75%
10:00 +15°C° 0 mm 2 m/S 764 mmHg 72%
11:00 +16°C° 0 mm 2 m/S 764 mmHg 68%
12:00 +17°C° 0 mm 3 m/S 764 mmHg 65%
13:00 +17°C° 0 mm 2 m/S 764 mmHg 65%
14:00 +17°C° 0 mm 2 m/S 763 mmHg 65%
15:00 +18°C° 0 mm 2 m/S 763 mmHg 65%
16:00 +16°C° 0 mm 2 m/S 763 mmHg 71%
17:00 +15°C° 0 mm 2 m/S 763 mmHg 76%
18:00 +14°C° 0 mm 2 m/S 763 mmHg 81%
19:00 +13°C° 0 mm 2 m/S 763 mmHg 82%
20:00 +13°C° 0 mm 2 m/S 763 mmHg 83%
21:00 +12°C° 0 mm 2 m/S 763 mmHg 85%
22:00 +12°C° 0 mm 2 m/S 763 mmHg 85%
23:00 +12°C° 0 mm 2 m/S 763 mmHg 85%

Morgen, 1 Oktober, Donnerstag

Zeit Temperatur Niederschläge Wind Luftdruck Luftfeuchtigkeit
00:00 +12°C° 0 mm 2 m/S 763 mmHg 86%
01:00 +12°C° 0 mm 2 m/S 764 mmHg 87%
02:00 +12°C° 0 mm 1 m/S 764 mmHg 88%
03:00 +12°C° 0 mm 1 m/S 764 mmHg 89%
04:00 +11°C° 0 mm 1 m/S 764 mmHg 89%
05:00 +11°C° 0 mm 1 m/S 763 mmHg 90%
06:00 +11°C° 0 mm 1 m/S 763 mmHg 90%
07:00 +12°C° 0 mm 1 m/S 763 mmHg 85%
08:00 +14°C° 0 mm 1 m/S 763 mmHg 80%
09:00 +15°C° 0 mm 2 m/S 764 mmHg 74%
10:00 +16°C° 0 mm 2 m/S 763 mmHg 70%
11:00 +17°C° 0 mm 2 m/S 763 mmHg 65%
12:00 +18°C° 0 mm 2 m/S 763 mmHg 61%
13:00 +19°C° 0 mm 1 m/S 763 mmHg 60%
14:00 +20°C° 0 mm 1 m/S 763 mmHg 59%
15:00 +20°C° 0 mm 1 m/S 763 mmHg 58%
16:00 +18°C° 0 mm 1 m/S 763 mmHg 64%
17:00 +14°C° 0 mm 0 m/S 762 mmHg 70%
18:00 +13°C° 0 mm 0 m/S 762 mmHg 76%
19:00 +12°C° 0 mm 0 m/S 762 mmHg 77%
20:00 +12°C° 0 mm 0 m/S 762 mmHg 79%
21:00 +12°C° 0 mm 0 m/S 762 mmHg 80%
22:00 +11°C° 0 mm 0 m/S 762 mmHg 82%
23:00 +11°C° 0 mm 0 m/S 762 mmHg 84%

übermorgen, 2 Oktober, Freitag

Zeit Temperatur Niederschläge Wind Luftdruck Luftfeuchtigkeit
00:00 +11°C° 0 mm 0 m/S 762 mmHg 85%
01:00 +11°C° 0 mm 0 m/S 762 mmHg 86%
02:00 +10°C° 0 mm 0 m/S 763 mmHg 86%
03:00 +10°C° 0 mm 0 m/S 763 mmHg 86%
04:00 +10°C° 0 mm 0 m/S 763 mmHg 87%
05:00 +10°C° 0 mm 0 m/S 762 mmHg 87%
06:00 +9°C° 0 mm 0 m/S 762 mmHg 87%
07:00 +11°C° 0 mm 0 m/S 763 mmHg 81%
08:00 +13°C° 0 mm 0 m/S 763 mmHg 75%
09:00 +14°C° 0 mm 0 m/S 763 mmHg 69%
10:00 +15°C° 0 mm 0 m/S 763 mmHg 64%
11:00 +16°C° 0 mm 0 m/S 762 mmHg 59%
12:00 +19°C° 0 mm 1 m/S 762 mmHg 54%
13:00 +19°C° 0 mm 1 m/S 762 mmHg 55%
14:00 +19°C° 0 mm 1 m/S 762 mmHg 56%
15:00 +19°C° 0 mm 1 m/S 762 mmHg 56%
16:00 +16°C° 0 mm 1 m/S 762 mmHg 61%
17:00 +15°C° 0 mm 1 m/S 762 mmHg 66%
18:00 +13°C° 0 mm 1 m/S 762 mmHg 70%
19:00 +13°C° 0 mm 1 m/S 762 mmHg 73%
20:00 +12°C° 0 mm 1 m/S 762 mmHg 76%
21:00 +11°C° 0 mm 1 m/S 762 mmHg 79%
22:00 +11°C° 0 mm 1 m/S 762 mmHg 81%
23:00 +11°C° 0 mm 1 m/S 762 mmHg 83%

3 Oktober, Samstag

Zeit Temperatur Niederschläge Wind Luftdruck Luftfeuchtigkeit
00:00 +10°C° 0 mm 1 m/S 762 mmHg 84%
01:00 +10°C° 0 mm 1 m/S 762 mmHg 85%
02:00 +10°C° 0 mm 1 m/S 762 mmHg 86%
03:00 +9°C° 0 mm 1 m/S 762 mmHg 86%
04:00 +9°C° 0 mm 1 m/S 762 mmHg 87%
05:00 +9°C° 0 mm 1 m/S 762 mmHg 87%
06:00 +9°C° 0 mm 1 m/S 762 mmHg 88%
07:00 +10°C° 0 mm 1 m/S 762 mmHg 82%
08:00 +12°C° 0 mm 2 m/S 762 mmHg 76%
09:00 +14°C° 0 mm 2 m/S 762 mmHg 71%
10:00 +15°C° 0 mm 2 m/S 762 mmHg 66%
11:00 +16°C° 0 mm 2 m/S 762 mmHg 62%
12:00 +17°C° 0 mm 2 m/S 762 mmHg 57%
13:00 +17°C° 0 mm 2 m/S 762 mmHg 57%
14:00 +17°C° 0 mm 2 m/S 762 mmHg 57%
15:00 +17°C° 0 mm 2 m/S 761 mmHg 58%
16:00 +15°C° 0 mm 2 m/S 761 mmHg 65%
17:00 +14°C° 0 mm 2 m/S 762 mmHg 72%
18:00 +12°C° 0 mm 2 m/S 762 mmHg 79%
19:00 +10°C° 0 mm 2 m/S 762 mmHg 82%
20:00 +10°C° 0 mm 2 m/S 762 mmHg 85%
21:00 +9°C° 0 mm 2 m/S 762 mmHg 88%
22:00 +9°C° 0 mm 2 m/S 762 mmHg 89%
23:00 +9°C° 0 mm 2 m/S 762 mmHg 90%

4 Oktober, Sonntag

Zeit Temperatur Niederschläge Wind Luftdruck Luftfeuchtigkeit
00:00 +8°C° 0 mm 2 m/S 762 mmHg 91%
01:00 +8°C° 0 mm 2 m/S 763 mmHg 89%
02:00 +8°C° 0 mm 2 m/S 763 mmHg 88%
03:00 +9°C° 0 mm 2 m/S 763 mmHg 86%
04:00 +9°C° 0 mm 2 m/S 763 mmHg 84%
05:00 +9°C° 0 mm 2 m/S 763 mmHg 82%
06:00 +9°C° 0 mm 2 m/S 763 mmHg 80%
07:00 +9°C° 0 mm 3 m/S 763 mmHg 78%
08:00 +10°C° 0 mm 3 m/S 763 mmHg 75%
09:00 +10°C° 0 mm 3 m/S 763 mmHg 73%
10:00 +11°C° 0 mm 3 m/S 763 mmHg 68%
11:00 +11°C° 0 mm 3 m/S 763 mmHg 63%
12:00 +12°C° 0 mm 3 m/S 763 mmHg 57%
13:00 +12°C° 0 mm 3 m/S 763 mmHg 57%
14:00 +13°C° 0 mm 2 m/S 763 mmHg 57%
15:00 +13°C° 0 mm 2 m/S 763 mmHg 57%
16:00 +10°C° 0 mm 2 m/S 763 mmHg 61%
17:00 +9°C° 0 mm 2 m/S 763 mmHg 65%
18:00 +7°C° 0 mm 2 m/S 763 mmHg 69%
19:00 +7°C° 0 mm 2 m/S 763 mmHg 71%
20:00 +6°C° 0 mm 2 m/S 763 mmHg 73%
21:00 +5°C° 0 mm 2 m/S 763 mmHg 74%
22:00 +5°C° 0 mm 2 m/S 763 mmHg 76%
23:00 +5°C° 0 mm 2 m/S 763 mmHg 78%

5 Oktober, Montag

Zeit Temperatur Niederschläge Wind Luftdruck Luftfeuchtigkeit
00:00 +4°C° 0 mm 2 m/S 764 mmHg 80%
01:00 +4°C° 0 mm 2 m/S 763 mmHg 80%
02:00 +4°C° 0 mm 2 m/S 763 mmHg 80%
03:00 +4°C° 0 mm 1 m/S 763 mmHg 80%
04:00 +4°C° 0 mm 1 m/S 763 mmHg 80%
05:00 +4°C° 0 mm 1 m/S 763 mmHg 80%
06:00 +4°C° 0 mm 1 m/S 764 mmHg 80%
07:00 +5°C° 0 mm 1 m/S 763 mmHg 73%
08:00 +7°C° 0 mm 1 m/S 763 mmHg 66%
09:00 +8°C° 0 mm 1 m/S 763 mmHg 59%
10:00 +9°C° 0 mm 1 m/S 763 mmHg 53%
11:00 +10°C° 0 mm 1 m/S 763 mmHg 48%
12:00 +11°C° 0 mm 1 m/S 763 mmHg 43%
13:00 +11°C° 0 mm 1 m/S 763 mmHg 42%
14:00 +12°C° 0 mm 1 m/S 762 mmHg 41%
15:00 +12°C° 0 mm 1 m/S 762 mmHg 40%
16:00 +10°C° 0 mm 1 m/S 762 mmHg 44%
17:00 +9°C° 0 mm 1 m/S 762 mmHg 49%
18:00 +6°C° 0 mm 0 m/S 762 mmHg 53%
19:00 +6°C° 0 mm 0 m/S 762 mmHg 54%
20:00 +5°C° 0 mm 0 m/S 762 mmHg 55%
21:00 +5°C° 0 mm 0 m/S 762 mmHg 56%
22:00 +4°C° 0 mm 0 m/S 761 mmHg 57%
23:00 +4°C° 0 mm 0 m/S 761 mmHg 58%
Mehr zeigen

We Need Your Consent

Meteoprog and our Service Providers may store and access personal data such as cookies, device identifiers or other similar technologies on your device and process such data to personalise content and ads, as well as provide social media features and to analyse the traffic.

  • Store and/or access information on your device

    Cookies, device identifiers or other information can be stored or accessed on your device for the purposes indicated above.

  • Personalised ads and content, ad and content measurement, audience insights, and products development

    Ads and content can be personalised based on a profile. More data can be added to better personalise ads and content. Ad and content performance can be measured. Insights about the audience who saw the ads and content can be derived. Such data can be used to develop or improve user’s experience, systems and software.

By clicking ‘I Agree’ you will allow the use of indicated cookies, device identifiers, web beacons or other similar technologies. Your settings can be changed in the browser on your device.

For certain purposes, legitimate interests may be relied on, rather than consent. You can read more about this in our Privacy and Cookie Policy.